Weather History for Palmdale, CA

Change the Weather History Date:

Monday, April 28, 2014

  Actual Average Record
Temperature  
Mean Temperature 65 °F 62 °F  
Max Temperature 78 °F 77 °F 95 °F (2007)
Min Temperature 52 °F 47 °F 31 °F (1955)
Degree Days  
Heating Degree Days 0 5  
Month to date heating degree days 133 220  
Since 1 July heating degree days 2294 2841  
Cooling Degree Days 0 2  
Month to date cooling degree days 43 14  
Year to date cooling degree days 44 16  
Growing Degree Days 15 (Base 50)    
Moisture  
Dew Point 33 °F    
Average Humidity 35    
Maximum Humidity 54    
Minimum Humidity 15    
Precipitation  
Precipitation 0.00 in 0.01 in 0.31 in (2005)
Month to date precipitation 0.13 0.45  
Year to date precipitation 2.09 4.96  
Since 1 July precipitation 4.16 7.94  
Snow  
Snow 0.00 in - 0.00 in (1973)
Month to date snowfall 0.0  
Since 1 July snowfall 0.0  
Snow Depth 0.00 in    
Sea Level Pressure  
Sea Level Pressure 30.03 in    
Wind  
Wind Speed 13 mph (WNW)    
Max Wind Speed 29 mph    
Max Gust Speed 34 mph    
Visibility 10 miles    
Events      
T = Trace of Precipitation, MM = Missing Value Source: NWS Daily Summary

Daily Weather History Graph

Daily Weather History Graph

Search for Another Location

Airport:

Trip Planner

Search our weather history database for the weather conditions in past years. The results will help you decide how hot, cold, wet, or windy it might be!

Date:

Astronomy

Apr. 28, 2014 Rise Set
Actual Time 6:05 AM PDT 7:34 PM PDT
Civil Twilight 5:38 AM PDT 8:01 PM PDT
Nautical Twilight 5:06 AM PDT 8:33 PM PDT
Astronomical Twilight 4:32 AM PDT 9:07 PM PDT
Moon 5:44 AM PDT (4/28) 7:18 PM PDT (4/28)
Length of Visible Light 14h 23m
Length of Day
13h 29m
Waning Crescent, 0% of the Moon is Illuminated
Apr 28
Waning Crescent
Apr 28
New
May 6
First Quarter
May 14
Full
May 21
Last Quarter

Hourly Weather History & Observations

Time (PDT) Temp. Dew Point Humidity Pressure Visibility Wind Dir Wind Speed Gust Speed Precip Events Conditions
12:53 AM 55.4 °F 32.0 °F 41% 30.05 in 10.0 mi WSW 8.1 mph - N/A   Clear
1:53 AM 55.9 °F 33.1 °F 42% 29.99 in 10.0 mi SW 10.4 mph - N/A   Clear
2:53 AM 55.4 °F 33.8 °F 44% 30.01 in 10.0 mi West 19.6 mph - N/A   Clear
3:53 AM 55.9 °F 36.0 °F 47% 29.98 in 10.0 mi WNW 23.0 mph - N/A   Clear
4:53 AM 54.0 °F 36.0 °F 51% 30.00 in 10.0 mi WNW 21.9 mph 31.1 mph N/A   Clear
5:53 AM 54.0 °F 35.1 °F 49% 30.01 in 10.0 mi WNW 18.4 mph - N/A   Clear
6:53 AM 53.1 °F 37.0 °F 55% 30.04 in 10.0 mi NW 12.7 mph - N/A   Clear
7:53 AM 55.0 °F 37.0 °F 51% 30.06 in 10.0 mi West 21.9 mph - N/A   Clear
8:53 AM 59.0 °F 36.0 °F 42% 30.06 in 10.0 mi WNW 18.4 mph - N/A   Clear
9:53 AM 62.1 °F 34.0 °F 35% 30.06 in 10.0 mi NW 11.5 mph - N/A   Clear
10:53 AM 66.0 °F 32.0 °F 28% 30.06 in 10.0 mi NNW 5.8 mph - N/A   Clear
11:53 AM 71.1 °F 28.0 °F 20% 30.05 in 10.0 mi NNE 10.4 mph 18.4 mph N/A   Clear
12:53 PM 73.0 °F 27.0 °F 18% 30.03 in 10.0 mi East 5.8 mph - N/A   Clear
1:53 PM 73.4 °F 26.6 °F 18% 30.07 in 10.0 mi Variable 3.5 mph - N/A   Clear
2:53 PM 75.0 °F 27.0 °F 17% 30.00 in 10.0 mi Variable 6.9 mph - N/A   Clear
3:53 PM 73.9 °F 25.0 °F 16% 29.99 in 10.0 mi Calm Calm - N/A   Clear
4:53 PM 77.0 °F 26.1 °F 15% 29.97 in 10.0 mi NNE 10.4 mph - N/A   Clear
5:53 PM 71.1 °F 36.0 °F 28% 29.98 in 10.0 mi WNW 24.2 mph - N/A   Clear
6:53 PM 66.0 °F 39.0 °F 37% 30.00 in 10.0 mi WNW 26.5 mph 29.9 mph N/A   Clear
7:53 PM 63.0 °F 37.9 °F 40% 30.01 in 10.0 mi WNW 18.4 mph - N/A   Clear
8:53 PM 61.0 °F 37.9 °F 42% 30.05 in 10.0 mi NW 12.7 mph - N/A   Clear
9:53 PM 59.0 °F 37.0 °F 44% 30.09 in 10.0 mi NW 3.5 mph - N/A   Clear
10:53 PM 57.0 °F 37.0 °F 47% 30.09 in 10.0 mi South 6.9 mph - N/A   Clear
11:53 PM 55.9 °F 37.0 °F 49% 30.10 in 10.0 mi SW 4.6 mph - N/A   Clear